Location: Unspecified
(51.3947°N, 0.0000°E)
Time: 21:34:48
(UTC+00:00)

Tiangong 2 - Visible Passes

Search period start: 25 June 2019 00:00
Search period end: 05 July 2019 00:00
Orbit: 376 x 388 km, 42.8° (Epoch: 25 June)

Date Brightness Start Highest point End Pass type
(mag) Time Alt. Az. Time Alt. Az. Time Alt. Az.
30 Jun 3.3 02:27:25 10° S 02:28:34 12° SSE 02:29:53 10° SE visible
01 Jul 2.9 03:02:24 10° SW 03:04:31 17° S 03:06:38 10° SE visible
02 Jul 3.0 02:04:10 14° S 02:04:30 15° SSE 02:06:21 10° SE visible
03 Jul 2.8 02:38:41 12° SW 02:40:28 17° S 02:42:40 10° SE visible
04 Jul 3.0 01:41:07 16° SSE 01:41:07 16° SSE 01:42:32 10° SE visible
